Location: Plymouth
(43.7490°N, 87.9770°W)
Time: 16:18:43
(UTC-06:00)

Daily predictions for brighter satellites

Satellite Brightness Start Highest point End
(mag) Time Altitude Azimuth Time Altitude Azimuth Time Altitude Azimuth
ATLAS 2AS CENTAUR R/B 3.6 16:34:34 10° NW 16:42:32 65° WSW 16:49:57 10° SSE
CSL-04 Debris 4.3 16:39:03 10° SSE 16:44:27 87° WSW 16:49:54 10° NNW
Cosmos 375 4.4 16:40:04 10° NW 16:44:39 86° NE 16:48:31 10° SE
SL-16 R/B 4.3 16:40:37 10° N 16:45:47 29° WNW 16:50:57 10° WSW
Cosmos 1484 Rocket 4.4 16:44:37 10° E 16:46:38 14° ENE 16:48:38 10° NNE
Cosmos 494 Rocket 4.3 16:41:52 10° NNW 16:47:08 78° WSW 16:52:23 10° SSE
Cosmos 1844 Rocket 3.5 16:43:10 10° SW 16:48:34 50° WNW 16:54:05 10° NNE
SMAP 3.3 16:48:11 10° SE 16:52:37 46° ENE 16:57:05 10° N
Ariane Rocket 4.1 16:49:14 10° S 16:54:07 49° W 16:59:03 10° NNW
Cosmos 1975 2.9 16:51:59 10° N 16:56:00 56° E 16:59:57 10° SSE
CORIOLIS 4.4 16:51:34 10° SE 16:56:44 49° ENE 17:01:54 10° N
SL-8 Rocket 4.3 16:52:33 10° NNW 16:58:42 72° W 17:04:48 10° S
Cosmos 1812 2.8 17:00:27 10° S 17:04:18 82° W 17:08:11 10° N
Tiangong 1 1.3 17:03:42 10° WSW 17:06:42 58° S 17:09:19 13° E
CZ-4 R/B 1.4 17:04:20 10° SSE 17:08:29 85° E 17:12:36 10° NNW
ISS -1.5 17:05:59 10° WNW 17:08:35 21° N 17:10:47 12° NE
MOS 1 4.2 17:03:30 10° SSE 17:09:08 75° ENE 17:14:48 10° NNW
Meteor 1-12 Rocket 4.5 17:05:05 10° NNW 17:10:56 83° W 17:16:51 10° S
COSMOS 2487 2.5 17:08:02 10° NNW 17:11:39 86° WSW 17:15:13 10° SSE
Cosmos 2366 rocket 4.3 17:06:33 10° N 17:12:54 77° W 17:19:10 10° S
SPOT 3 Rocket 3.5 17:07:49 10° SSE 17:12:59 77° ENE 17:18:10 10° N
MSX 3.9 17:07:55 10° SE 17:13:30 54° ENE 17:19:05 10° N
Meteor 2-21 4.4 17:09:56 10° N 17:16:06 66° E 17:22:09 10° SSE
USA 116 4.4 17:11:40 10° NNE 17:17:04 78° ESE 17:22:04 10° S
AQUARIUS 4.1 17:13:54 10° SSE 17:18:24 84° ENE 17:22:55 10° NNW
NOSS 2-1 (D) 3.5 17:22:39 10° SSW 17:26:24 57° ESE 17:29:25 18° NE
Cosmos 2297 3.6 17:21:08 10° SSW 17:26:46 78° ESE 17:32:24 10° NNE
NOSS 2-1 (C) 3.5 17:23:19 10° SSW 17:27:05 56° ESE 17:30:04 18° NE
COSMO-SKYMED 1 3.1 17:28:03 12° NNE 17:31:40 36° E 17:35:40 10° SSE
OE (NEXTSAT) 4.5 17:29:05 10° W 17:32:39 67° N 17:34:31 26° ENE
Meteor 2-14 Rocket 4.4 17:27:02 10° N 17:33:11 66° E 17:39:16 10° SSE
Cosmos 1190 Rocket 4.5 17:28:31 10° N 17:33:22 36° ENE 17:38:09 10° SE
CZ-3A R/B 4.1 17:28:10 10° W 17:33:44 58° NNW 17:55:09 18° ENE
Cosmos 2278 Rocket 3.1 17:29:47 10° SW 17:35:12 46° WNW 17:40:40 10° NNE
Cosmos 921 Rocket 2.9 17:33:09 10° SSW 17:37:24 80° ESE 17:41:32 11° NNE
Cosmos 1666 3.3 17:34:14 10° N 17:37:49 35° ENE 17:41:24 10° SE
Abrixas 4.2 17:35:16 10° W 17:37:57 32° SW 17:40:38 10° SSE
GEOS 3 Rocket 4.4 17:36:10 20° E 17:38:36 30° NE 17:43:00 10° NNW
Cosmos 1025 Rocket 3.4 17:35:08 10° SSE 17:39:15 41° E 17:42:26 16° NNE
Thor Agena Rocket 3.9 17:39:08 10° N 17:44:20 68° WNW 17:49:34 10° SSW
IDEFIX/ARIANE 42P 3.2 17:39:20 10° S 17:44:26 58° W 17:49:34 10° NNW
BREEZE-M DEB (TANK) 2.9 17:42:45 10° WNW 17:44:40 27° N 17:45:01 26° NNE
Cosmos 1346 Rocket 3.5 17:41:18 10° SSW 17:45:07 53° WNW 17:48:56 10° N
NOSS 2-1 (E) 3.3 17:41:54 10° SSW 17:45:46 80° ESE 17:48:16 25° NE
Cosmos 1821 Rocket 3.9 17:40:04 10° N 17:46:07 63° E 17:52:09 10° SSE
ASTRO F (AKARI) 4.2 17:47:54 19° N 17:50:04 81° WNW 17:53:15 10° SSW
Cosmos 1833 Rocket 2.9 17:44:26 10° NNW 17:50:06 76° WSW 17:55:42 10° SSE
YAOGAN 1 3.9 17:52:24 10° S 17:56:29 41° W 18:00:37 10° NNW
Cosmos 1605 Rocket 4.2 17:50:51 10° N 17:56:50 43° ENE 18:02:41 10° SSE
CZ-3B DEB 3.2 17:53:28 10° W 17:57:51 49° NNW 18:04:32 21° NE
Cosmos 2058 Rocket 4.2 17:54:15 10° N 18:02:42 - SE 17:56:38 26° NNE
Meteor 2-16 Rocket 4.4 17:52:46 10° N 17:58:54 87° W 18:04:59 10° S
Cosmos 2082 Rocket 3.0 17:53:57 10° NNW 17:59:28 55° WSW 18:04:59 10° S
USA 234 3.3 17:56:13 22° NE 18:00:44 81° NW 18:07:16 10° WSW
SKYMED 3 4.4 17:58:26 17° NNE 18:01:47 78° ESE 18:06:07 10° S
Cosmos 1743 3.3 17:58:08 10° NNW 18:01:58 59° W 18:05:45 10° S
Intercosmos 25 3.9 18:03:08 10° NNW 18:06:13 48° W 18:09:35 10° S
CZ-2C R/B 4.2 18:01:39 10° SSW 18:06:15 35° W 18:10:59 10° NNW
Meteor 1-28 Rocket 3.4 18:06:27 49° ESE 18:06:27 49° ESE 18:09:56 10° S
BREEZE M DEB (TANK) 2.2 18:05:36 10° WSW 18:12:47 85° SSE 18:13:17 64° ENE
NOSS 3-4 (A) 3.9 18:11:48 10° NW 18:18:50 81° SW 18:26:18 10° SSE
NOSS 3-4 (C) 3.8 18:11:54 10° NW 18:18:56 82° SW 18:26:24 10° SSE
SKYMED 2 3.8 18:16:39 18° N 18:19:47 68° WNW 18:24:06 10° SSW
Cosmos 1484 Rocket 3.9 18:17:10 10° S 18:20:45 43° W 18:24:19 10° NNW
SL-8 R/B 4.1 18:16:31 10° WNW 18:21:09 47° N 18:21:46 45° NNE
ERBS 4.4 18:19:27 10° NNW 18:20:42 19° NNW 18:20:42 19° NNW
Cosmos 407 Rocket 3.3 18:18:32 10° NNW 18:23:42 81° ENE 18:28:52 10° SSE
Cosmos 2056 Rocket 3.5 18:21:49 10° SSW 18:27:11 80° WNW 18:29:41 32° NNE
BREEZE M DEB (TANK) 3.5 18:24:34 10° WNW 18:28:28 88° NNE 18:34:19 27° ESE
Okean 2 3.4 18:29:03 10° S 18:33:13 80° W 18:33:19 79° WNW
Cosmos 676 Rocket 3.8 18:30:00 10° NNW 18:35:12 73° ENE 18:35:31 70° E
Cosmos 1892 Rocket 3.5 18:31:30 10° S 18:35:51 84° W 18:35:54 83° WNW
Cosmos 1727 Rocket 3.8 18:30:38 10° S 18:36:45 65° E 18:38:31 46° NNE
Meteor 1-15 Rocket 4.4 18:32:22 10° NNW 18:38:16 75° W 18:44:01 10° S
Cosmos 2369 Rocket 2.9 18:32:57 10° S 18:36:50 37° SE 18:36:50 37° SE
Cosmos 1954 Rocket 4.5 18:34:25 10° NNW 18:38:08 44° N 18:38:08 44° N
Cosmos 1624 Rocket 4.5 18:34:58 10° SW 18:40:03 57° WNW 18:42:26 31° N
Cosmos 1726 Rocket 4.0 18:36:24 10° NNW 18:40:49 61° W 18:45:12 10° S
NOAA 12 4.2 18:36:13 10° S 18:41:29 74° WSW 18:46:45 10° NNW
Tiangong 1 3.6 18:39:46 10° W 18:41:00 22° W 18:41:00 22° W
ISS -0.4 18:43:00 10° NW 18:43:28 13° NW 18:43:28 13° NW
FALCON 9 R/B 3.7 18:25:03 10° W 18:46:01 51° SSW 18:49:07 34° SE
Meteor 2-4 Rocket 4.4 18:41:30 10° SSW 18:46:40 49° WNW 18:51:12 14° N
Cosmos 1339 Rocket 4.4 19:06:11 10° SSW 19:12:02 76° WSW 19:12:02 76° WSW
Cosmos 1452 Rocket 4.5 19:10:51 10° SSW 19:14:15 41° SW 19:14:15 41° SW
GEOS 3 Rocket 4.3 19:17:19 51° W 19:17:19 51° W 19:21:28 10° NW
USA 234 4.3 19:43:35 36° NNW 19:43:35 36° NNW 19:49:05 10° W
CZ-3B DEB 4.4 20:26:49 10° WNW 20:32:17 44° NNW 20:32:17 44° NNW
